,,,PA_Meas_PMT16A,,PR_Meas_QMR101_102,,RH_Meas_QMH101,,SR_Meas_QMS101,,TA_Meas_QMH101,,GenWind,,GenWind,
date,time,status,PA,status,PR,status,RH,status,SR,status,TA,status,DirAvg,status,SpdAvg,
2009-12-19, 00:00:04,VALID,1012.61,VALID,0,VALID,53.2735,VALID,0,VALID,23.8676,VALID,193,VALID,0.0675781,
2009-12-19, 00:01:04,VALID,1012.63,VALID,0,VALID,53.2888,VALID,0.105969,VALID,23.8676,VALID,193,VALID,0,
2009-12-19, 00:02:04,VALID,1012.6,VALID,0,VALID,53.3116,VALID,0.105969,VALID,23.8694,VALID,193,VALID,0,
2009-12-19, 00:03:04,VALID,1012.6,VALID,0,VALID,53.2735,VALID,0.105969,VALID,23.8694,VALID,193,VALID,0,
2009-12-19, 00:04:04,VALID,1012.59,VALID,0,VALID,53.2659,VALID,0,VALID,23.8694,VALID,193,VALID,0,
2009-12-19, 00:05:04,VALID,1012.6,VALID,0,VALID,53.2888,VALID,0.105969,VALID,23.8676,VALID,193,VALID,0,
2009-12-19, 00:06:04,VALID,1012.57,VALID,0,VALID,53.2811,VALID,0.105969,VALID,23.8871,VALID,193,VALID,0,
2009-12-19, 00:07:04,VALID,1012.57,VALID,0,VALID,53.243,VALID,0,VALID,23.8871,VALID,193,VALID,0,
2009-12-19, 00:08:04,VALID,1012.56,VALID,0,VALID,53.2278,VALID,0.105969,VALID,23.8871,VALID,193,VALID,0,
2009-12-19, 00:09:04,VALID,1012.52,VALID,0,VALID,53.2278,VALID,0.105969,VALID,23.9084,VALID,193,VALID,0,
2009-12-19, 00:10:04,VALID,1012.52,VALID,0,VALID,53.2049,VALID,0.105969,VALID,23.9065,VALID,193,VALID,0,
2009-12-19, 00:11:04,VALID,1012.49,VALID,0,VALID,53.1973,VALID,0.105969,VALID,23.9278,VALID,193,VALID,0,
2009-12-19, 00:12:04,VALID,1012.5,VALID,0,VALID,53.1973,VALID,0.105969,VALID,23.9065,VALID,193,VALID,0,
2009-12-19, 00:13:04,VALID,1012.51,VALID,0,VALID,53.1744,VALID,0.105969,VALID,23.926,VALID,193,VALID,0,
2009-12-19, 00:14:04,VALID,1012.5,VALID,0,VALID,53.1591,VALID,0.105969,VALID,23.926,VALID,193,VALID,0,
2009-12-19, 00:15:04,VALID,1012.48,VALID,0,VALID,53.1591,VALID,0.105969,VALID,23.9473,VALID,193,VALID,0,
2009-12-19, 00:16:04,VALID,1012.5,VALID,0,VALID,53.1896,VALID,0.105969,VALID,23.926,VALID,193,VALID,0,
2009-12-19, 00:17:04,VALID,1012.49,VALID,0,VALID,53.243,VALID,0,VALID,23.8871,VALID,193,VALID,0,
2009-12-19, 00:18:04,VALID,1012.46,VALID,0,VALID,53.2506,VALID,0,VALID,23.8871,VALID,193,VALID,0,
2009-12-19, 00:19:04,VALID,1012.48,VALID,0,VALID,53.243,VALID,0.105969,VALID,23.8676,VALID,193,VALID,0,
2009-12-19, 00:20:04,VALID,1012.44,VALID,0,VALID,53.2506,VALID,0.105969,VALID,23.8676,VALID,193,VALID,0,
2009-12-19, 00:21:04,VALID,1012.45,VALID,0,VALID,53.2735,VALID,0.105969,VALID,23.8481,VALID,193,VALID,0,
2009-12-19, 00:22:04,VALID,1012.41,VALID,0,VALID,53.3116,VALID,0.105969,VALID,23.8286,VALID,261,VALID,0,
2009-12-19, 00:23:04,VALID,1012.4,VALID,0,VALID,53.3269,VALID,0,VALID,23.7896,VALID,6,VALID,0,
2009-12-19, 00:24:04,VALID,1012.39,VALID,0,VALID,53.365,VALID,0.105969,VALID,23.7914,VALID,16,VALID,0,
2009-12-19, 00:25:04,VALID,1012.37,VALID,0,VALID,53.3421,VALID,0.105969,VALID,23.7701,VALID,20,VALID,0,
2009-12-19, 00:26:04,VALID,1012.37,VALID,0,VALID,53.4032,VALID,0.105969,VALID,23.7312,VALID,20,VALID,0,
2009-12-19, 00:27:04,VALID,1012.35,VALID,0,VALID,53.3803,VALID,0.105969,VALID,23.7312,VALID,20,VALID,0,
2009-12-19, 00:28:04,VALID,1012.35,VALID,0,VALID,53.3803,VALID,0.105969,VALID,23.7117,VALID,20,VALID,0,
2009-12-19, 00:29:04,VALID,1012.35,VALID,0,VALID,53.365,VALID,0.105969,VALID,23.7312,VALID,20,VALID,0,
2009-12-19, 00:30:04,VALID,1012.35,VALID,0,VALID,53.3498,VALID,0,VALID,23.7312,VALID,20,VALID,0,
2009-12-19, 00:31:04,VALID,1012.32,VALID,0,VALID,53.3498,VALID,0.105969,VALID,23.7312,VALID,18,VALID,0,
2009-12-19, 00:32:04,VALID,1012.3,VALID,0,VALID,53.3193,VALID,0.105969,VALID,23.7117,VALID,17,VALID,0,
2009-12-19, 00:33:04,VALID,1012.29,VALID,0,VALID,53.3193,VALID,0.105969,VALID,23.7117,VALID,17,VALID,0,
2009-12-19, 00:34:04,VALID,1012.26,VALID,0,VALID,53.3269,VALID,0,VALID,23.7135,VALID,17,VALID,0,
2009-12-19, 00:35:04,VALID,1012.21,VALID,0,VALID,53.3269,VALID,0.105969,VALID,23.6922,VALID,17,VALID,0,
2009-12-19, 00:36:04,VALID,1012.22,VALID,0,VALID,53.304,VALID,0.105969,VALID,23.7117,VALID,17,VALID,0,
2009-12-19, 00:37:04,VALID,1012.19,VALID,0,VALID,53.3421,VALID,0.105969,VALID,23.6922,VALID,17,VALID,0,
2009-12-19, 00:38:04,VALID,1012.19,VALID,0,VALID,53.3498,VALID,0.105969,VALID,23.694,VALID,17,VALID,0,
2009-12-19, 00:39:04,VALID,1012.16,VALID,0,VALID,53.3345,VALID,0,VALID,23.694,VALID,17,VALID,0,
2009-12-19, 00:40:04,VALID,1012.14,VALID,0,VALID,53.2735,VALID,0,VALID,23.694,VALID,17,VALID,0,
2009-12-19, 00:41:04,VALID,1012.14,VALID,0,VALID,53.2583,VALID,0.105969,VALID,23.6922,VALID,17,VALID,0,
2009-12-19, 00:42:04,VALID,1012.14,VALID,0,VALID,53.2354,VALID,0,VALID,23.7117,VALID,62,VALID,0,
2009-12-19, 00:43:04,VALID,1012.11,VALID,0,VALID,53.1973,VALID,0.105969,VALID,23.7507,VALID,88,VALID,0,
2009-12-19, 00:44:04,VALID,1012.11,VALID,0,VALID,53.1668,VALID,0.105969,VALID,23.7914,VALID,89,VALID,0,
2009-12-19, 00:45:04,VALID,1012.11,VALID,0,VALID,53.1591,VALID,0,VALID,23.7914,VALID,90,VALID,0,
2009-12-19, 00:46:04,VALID,1012.1,VALID,0,VALID,53.1591,VALID,0.105969,VALID,23.7896,VALID,58,VALID,0,
2009-12-19, 00:47:04,VALID,1012.06,VALID,0,VALID,53.1439,VALID,0.105969,VALID,23.7914,VALID,56,VALID,0,
2009-12-19, 00:48:04,VALID,1012.1,VALID,0,VALID,53.1744,VALID,0.105969,VALID,23.7701,VALID,52,VALID,0,
2009-12-19, 00:49:04,VALID,1012.05,VALID,0,VALID,53.2125,VALID,0.105969,VALID,23.772,VALID,51,VALID,0,
2009-12-19, 00:50:04,VALID,1012.07,VALID,0,VALID,53.2125,VALID,0,VALID,23.7312,VALID,51,VALID,0,
2009-12-19, 00:51:04,VALID,1012.06,VALID,0,VALID,53.2506,VALID,0.105969,VALID,23.7312,VALID,51,VALID,0,
2009-12-19, 00:52:04,VALID,1012.05,VALID,0,VALID,53.243,VALID,0,VALID,23.7117,VALID,51,VALID,0,
2009-12-19, 00:53:04,VALID,1012.03,VALID,0,VALID,53.2354,VALID,0.105969,VALID,23.733,VALID,51,VALID,0,
2009-12-19, 00:54:04,VALID,1012,VALID,0,VALID,53.2735,VALID,0.105969,VALID,23.6922,VALID,51,VALID,0,
2009-12-19, 00:55:04,VALID,1012.01,VALID,0,VALID,53.2735,VALID,0.105969,VALID,23.6922,VALID,51,VALID,0,
2009-12-19, 00:56:04,VALID,1011.98,VALID,0,VALID,53.2888,VALID,0,VALID,23.655,VALID,47,VALID,0.289063,
2009-12-19, 00:57:04,VALID,1011.97,VALID,0,VALID,53.3421,VALID,0,VALID,23.655,VALID,47,VALID,0,
2009-12-19, 00:58:04,VALID,1011.92,VALID,0,VALID,53.3269,VALID,0,VALID,23.6356,VALID,47,VALID,0,
2009-12-19, 00:59:04,VALID,1011.89,VALID,0,VALID,53.304,VALID,0,VALID,23.6356,VALID,47,VALID,0,
2009-12-19, 01:00:04,VALID,1011.88,VALID,0,VALID,53.3269,VALID,0,VALID,23.6161,VALID,47,VALID,0,
2009-12-19, 01:01:04,VALID,1011.86,VALID,0,VALID,53.3574,VALID,0,VALID,23.6356,VALID,47,VALID,0,
2009-12-19, 01:02:04,VALID,1011.84,VALID,0,VALID,53.3421,VALID,0,VALID,23.6373,VALID,47,VALID,0,
2009-12-19, 01:03:04,VALID,1011.82,VALID,0,VALID,53.3498,VALID,0,VALID,23.5966,VALID,47,VALID,0,
2009-12-19, 01:04:04,VALID,1011.78,VALID,0,VALID,53.3498,VALID,0,VALID,23.6161,VALID,47,VALID,0,
2009-12-19, 01:05:04,VALID,1011.76,VALID,0,VALID,53.3727,VALID,0,VALID,23.5966,VALID,47,VALID,0,
2009-12-19, 01:06:04,VALID,1011.74,VALID,0,VALID,53.3574,VALID,0,VALID,23.5966,VALID,47,VALID,0,
2009-12-19, 01:07:04,VALID,1011.72,VALID,0,VALID,53.3727,VALID,0,VALID,23.5966,VALID,47,VALID,0,
2009-12-19, 01:08:04,VALID,1011.71,VALID,0,VALID,53.3727,VALID,0,VALID,23.5966,VALID,47,VALID,0,
2009-12-19, 01:09:04,VALID,1011.68,VALID,0,VALID,53.3345,VALID,0,VALID,23.5771,VALID,47,VALID,0,
2009-12-19, 01:10:04,VALID,1011.68,VALID,0,VALID,53.3727,VALID,0,VALID,23.5984,VALID,47,VALID,0,
2009-12-19, 01:11:04,VALID,1011.64,VALID,0,VALID,53.365,VALID,0,VALID,23.5771,VALID,47,VALID,0,
2009-12-19, 01:12:04,VALID,1011.65,VALID,0,VALID,53.3498,VALID,0,VALID,23.5771,VALID,351,VALID,0,
2009-12-19, 01:13:04,VALID,1011.63,VALID,0,VALID,53.3193,VALID,0,VALID,23.5966,VALID,351,VALID,0,
2009-12-19, 01:14:04,VALID,1011.59,VALID,0,VALID,53.3269,VALID,0,VALID,23.5966,VALID,351,VALID,0,
2009-12-19, 01:15:05,VALID,1011.57,VALID,0,VALID,53.3574,VALID,0,VALID,23.5753,VALID,351,VALID,0,
2009-12-19, 01:16:05,VALID,1011.54,VALID,0,VALID,53.3421,VALID,0,VALID,23.5771,VALID,351,VALID,0,
2009-12-19, 01:17:05,VALID,1011.51,VALID,0,VALID,53.3421,VALID,0,VALID,23.5753,VALID,351,VALID,0,
2009-12-19, 01:18:05,VALID,1011.46,VALID,0,VALID,53.3193,VALID,0,VALID,23.5771,VALID,351,VALID,0,
2009-12-19, 01:19:05,VALID,1011.46,VALID,0,VALID,53.3345,VALID,0,VALID,23.5984,VALID,351,VALID,0,
2009-12-19, 01:20:05,VALID,1011.45,VALID,0,VALID,53.3421,VALID,0,VALID,23.5576,VALID,351,VALID,0,
2009-12-19, 01:21:05,VALID,1011.43,VALID,0,VALID,53.3574,VALID,0,VALID,23.5576,VALID,351,VALID,0,
2009-12-19, 01:22:05,VALID,1011.42,VALID,0,VALID,53.3727,VALID,0,VALID,23.5576,VALID,351,VALID,0,
2009-12-19, 01:23:05,VALID,1011.38,VALID,0,VALID,53.3727,VALID,0,VALID,23.5576,VALID,351,VALID,0,
2009-12-19, 01:24:05,VALID,1011.4,VALID,0,VALID,53.365,VALID,0,VALID,23.5381,VALID,351,VALID,0,
2009-12-19, 01:25:05,VALID,1011.34,VALID,0,VALID,53.3803,VALID,0,VALID,23.5381,VALID,351,VALID,0,
2009-12-19, 01:26:05,VALID,1011.33,VALID,0,VALID,53.3955,VALID,0,VALID,23.5186,VALID,351,VALID,0,
2009-12-19, 01:27:05,VALID,1011.3,VALID,0,VALID,53.3727,VALID,0,VALID,23.5186,VALID,307,VALID,0,
2009-12-19, 01:28:05,VALID,1011.29,VALID,0,VALID,53.365,VALID,0,VALID,23.5576,VALID,286,VALID,0,
2009-12-19, 01:29:05,VALID,1011.24,VALID,0,VALID,53.3345,VALID,0,VALID,23.5576,VALID,286,VALID,0,
2009-12-19, 01:30:05,VALID,1011.23,VALID,0,VALID,53.3574,VALID,0,VALID,23.5381,VALID,286,VALID,0,
2009-12-19, 01:31:05,VALID,1011.2,VALID,0,VALID,53.3421,VALID,0,VALID,23.5381,VALID,286,VALID,0,
2009-12-19, 01:32:05,VALID,1011.18,VALID,0,VALID,53.3498,VALID,0,VALID,23.5576,VALID,286,VALID,0,
2009-12-19, 01:33:05,VALID,1011.14,VALID,0,VALID,53.3269,VALID,0,VALID,23.5576,VALID,286,VALID,0,
2009-12-19, 01:34:05,VALID,1011.14,VALID,0,VALID,53.3345,VALID,0,VALID,23.5381,VALID,286,VALID,0,
2009-12-19, 01:35:05,VALID,1011.1,VALID,0,VALID,53.365,VALID,0,VALID,23.5381,VALID,286,VALID,0,
2009-12-19, 01:36:05,VALID,1011.11,VALID,0,VALID,53.3193,VALID,0,VALID,23.5381,VALID,286,VALID,0,
2009-12-19, 01:37:05,VALID,1011.1,VALID,0,VALID,53.3345,VALID,0,VALID,23.5381,VALID,286,VALID,0,
2009-12-19, 01:38:05,VALID,1011.08,VALID,0,VALID,53.3574,VALID,0,VALID,23.5381,VALID,286,VALID,0,
2009-12-19, 01:39:05,VALID,1011.07,VALID,0,VALID,53.3498,VALID,0,VALID,23.5186,VALID,286,VALID,0,
2009-12-19, 01:40:05,VALID,1011.1,VALID,0,VALID,53.365,VALID,0,VALID,23.5186,VALID,286,VALID,0,
2009-12-19, 01:41:05,VALID,1011.1,VALID,0,VALID,53.3498,VALID,0,VALID,23.4992,VALID,286,VALID,0,
2009-12-19, 01:42:05,VALID,1011.12,VALID,0,VALID,53.365,VALID,0.105969,VALID,23.5186,VALID,286,VALID,0,
2009-12-19, 01:43:05,VALID,1011.12,VALID,0,VALID,53.365,VALID,0,VALID,23.4797,VALID,286,VALID,0,
2009-12-19, 01:44:05,VALID,1011.12,VALID,0,VALID,53.3879,VALID,0,VALID,23.4992,VALID,286,VALID,0,
2009-12-19, 01:45:05,VALID,1011.08,VALID,0,VALID,53.4032,VALID,0,VALID,23.4797,VALID,286,VALID,0,
2009-12-19, 01:46:05,VALID,1011.07,VALID,0,VALID,53.365,VALID,0,VALID,23.4797,VALID,286,VALID,0,
2009-12-19, 01:47:05,VALID,1011.05,VALID,0,VALID,53.3574,VALID,0,VALID,23.4992,VALID,286,VALID,0,
2009-12-19, 01:48:05,VALID,1011.02,VALID,0,VALID,53.3498,VALID,0,VALID,23.4797,VALID,286,VALID,0,
2009-12-19, 01:49:05,VALID,1011,VALID,0,VALID,53.3574,VALID,0.105969,VALID,23.4992,VALID,286,VALID,0,
2009-12-19, 01:50:05,VALID,1011,VALID,0,VALID,53.3269,VALID,0,VALID,23.4992,VALID,286,VALID,0,
2009-12-19, 01:51:05,VALID,1010.99,VALID,0,VALID,53.3498,VALID,0,VALID,23.4992,VALID,286,VALID,0,
2009-12-19, 01:52:05,VALID,1011,VALID,0,VALID,53.3574,VALID,0,VALID,23.4797,VALID,286,VALID,0,
2009-12-19, 01:53:05,VALID,1010.98,VALID,0,VALID,53.3498,VALID,0,VALID,23.4797,VALID,286,VALID,0,
2009-12-19, 01:54:05,VALID,1010.99,VALID,0,VALID,53.3574,VALID,0,VALID,23.4992,VALID,286,VALID,0,
2009-12-19, 01:55:05,VALID,1011.01,VALID,0,VALID,53.3345,VALID,0,VALID,23.4992,VALID,286,VALID,0,
2009-12-19, 01:56:05,VALID,1011,VALID,0,VALID,53.3345,VALID,0,VALID,23.4797,VALID,284,VALID,0,
2009-12-19, 01:57:05,VALID,1010.98,VALID,0,VALID,53.3116,VALID,0.105969,VALID,23.4992,VALID,268,VALID,0,
2009-12-19, 01:58:05,VALID,1011.01,VALID,0,VALID,53.304,VALID,0,VALID,23.4797,VALID,268,VALID,0,
2009-12-19, 01:59:05,VALID,1011.02,VALID,0,VALID,53.3421,VALID,0,VALID,23.4797,VALID,268,VALID,0,
2009-12-19, 02:00:05,VALID,1011,VALID,0,VALID,53.3269,VALID,0,VALID,23.4602,VALID,268,VALID,0,
2009-12-19, 02:01:05,VALID,1011,VALID,0,VALID,53.3345,VALID,0,VALID,23.4602,VALID,268,VALID,0,
2009-12-19, 02:02:05,VALID,1011,VALID,0,VALID,53.3269,VALID,0,VALID,23.4797,VALID,268,VALID,0,
2009-12-19, 02:03:05,VALID,1010.99,VALID,0,VALID,53.2964,VALID,0,VALID,23.4602,VALID,268,VALID,0,
2009-12-19, 02:04:05,VALID,1010.95,VALID,0,VALID,53.2964,VALID,0,VALID,23.4602,VALID,268,VALID,0,
2009-12-19, 02:05:05,VALID,1010.94,VALID,0,VALID,53.2735,VALID,0,VALID,23.4602,VALID,268,VALID,0,
2009-12-19, 02:06:05,VALID,1010.94,VALID,0,VALID,53.2506,VALID,0,VALID,23.4407,VALID,268,VALID,0,
2009-12-19, 02:07:05,VALID,1010.91,VALID,0,VALID,53.243,VALID,0,VALID,23.4194,VALID,268,VALID,0,
2009-12-19, 02:08:05,VALID,1010.89,VALID,0,VALID,53.2354,VALID,0,VALID,23.4407,VALID,268,VALID,0,
2009-12-19, 02:09:05,VALID,1010.89,VALID,0,VALID,53.243,VALID,0.105969,VALID,23.4212,VALID,268,VALID,0,
2009-12-19, 02:10:05,VALID,1010.87,VALID,0,VALID,53.2888,VALID,0,VALID,23.3805,VALID,268,VALID,0,
2009-12-19, 02:11:05,VALID,1010.88,VALID,0,VALID,53.2735,VALID,0,VALID,23.4017,VALID,268,VALID,0,
2009-12-19, 02:12:05,VALID,1010.85,VALID,0,VALID,53.2811,VALID,0,VALID,23.3823,VALID,268,VALID,0,
2009-12-19, 02:13:05,VALID,1010.88,VALID,0,VALID,53.3116,VALID,0,VALID,23.3628,VALID,268,VALID,0,
2009-12-19, 02:14:05,VALID,1010.88,VALID,0,VALID,53.3193,VALID,0,VALID,23.3415,VALID,268,VALID,0,
2009-12-19, 02:15:05,VALID,1010.88,VALID,0,VALID,53.3498,VALID,0,VALID,23.3628,VALID,268,VALID,0,
2009-12-19, 02:16:05,VALID,1010.87,VALID,0,VALID,53.3498,VALID,0,VALID,23.322,VALID,268,VALID,0,
2009-12-19, 02:17:05,VALID,1010.87,VALID,0,VALID,53.3574,VALID,0,VALID,23.3628,VALID,268,VALID,0,
2009-12-19, 02:18:05,VALID,1010.84,VALID,0,VALID,53.3879,VALID,0,VALID,23.3628,VALID,268,VALID,0,
2009-12-19, 02:19:05,VALID,1010.85,VALID,0,VALID,53.3955,VALID,0,VALID,23.3628,VALID,306,VALID,0,
2009-12-19, 02:20:05,VALID,1010.84,VALID,0,VALID,53.3421,VALID,0,VALID,23.3628,VALID,306,VALID,0,
2009-12-19, 02:21:05,VALID,1010.82,VALID,0,VALID,53.365,VALID,0,VALID,23.3433,VALID,305,VALID,0,
2009-12-19, 02:22:05,VALID,1010.86,VALID,0,VALID,53.4032,VALID,0,VALID,23.322,VALID,306,VALID,0,
2009-12-19, 02:23:05,VALID,1010.86,VALID,0,VALID,53.3955,VALID,0,VALID,23.3433,VALID,306,VALID,0,
2009-12-19, 02:24:05,VALID,1010.88,VALID,0,VALID,53.3574,VALID,0,VALID,23.3645,VALID,316,VALID,0,
2009-12-19, 02:25:05,VALID,1010.89,VALID,0,VALID,53.365,VALID,0,VALID,23.3628,VALID,316,VALID,0,
2009-12-19, 02:26:05,VALID,1010.88,VALID,0,VALID,53.3269,VALID,0.105969,VALID,23.361,VALID,316,VALID,0,
2009-12-19, 02:27:05,VALID,1010.87,VALID,0,VALID,53.3498,VALID,0.105969,VALID,23.361,VALID,316,VALID,0,
2009-12-19, 02:28:05,VALID,1010.87,VALID,0,VALID,53.3193,VALID,0.105969,VALID,23.361,VALID,316,VALID,0,
2009-12-19, 02:29:05,VALID,1010.86,VALID,0,VALID,53.3269,VALID,0.105969,VALID,23.361,VALID,319,VALID,0,
2009-12-19, 02:30:05,VALID,1010.86,VALID,0,VALID,53.3421,VALID,0.105969,VALID,23.3415,VALID,324,VALID,0,
2009-12-19, 02:31:05,VALID,1010.88,VALID,0,VALID,53.3879,VALID,0.105969,VALID,23.3415,VALID,321,VALID,0,
2009-12-19, 02:32:05,VALID,1010.87,VALID,0,VALID,53.3498,VALID,0.105969,VALID,23.361,VALID,320,VALID,0,
2009-12-19, 02:33:05,VALID,1010.85,VALID,0,VALID,53.3345,VALID,0.105969,VALID,23.3415,VALID,319,VALID,0,
2009-12-19, 02:34:05,VALID,1010.85,VALID,0,VALID,53.365,VALID,0,VALID,23.361,VALID,320,VALID,0,
2009-12-19, 02:35:05,VALID,1010.85,VALID,0,VALID,53.3574,VALID,0.105969,VALID,23.3415,VALID,325,VALID,0,
2009-12-19, 02:36:05,VALID,1010.83,VALID,0,VALID,53.365,VALID,0.105969,VALID,23.3415,VALID,338,VALID,0,
2009-12-19, 02:37:05,VALID,1010.84,VALID,0,VALID,53.365,VALID,0.105969,VALID,23.322,VALID,338,VALID,0,
2009-12-19, 02:38:05,VALID,1010.86,VALID,0,VALID,53.3727,VALID,0.105969,VALID,23.3203,VALID,338,VALID,0,
2009-12-19, 02:39:05,VALID,1010.86,VALID,0,VALID,53.3955,VALID,0.105969,VALID,23.3415,VALID,338,VALID,0,
2009-12-19, 02:40:05,VALID,1010.9,VALID,0,VALID,53.3498,VALID,0.105969,VALID,23.3415,VALID,338,VALID,0,
2009-12-19, 02:41:05,VALID,1010.91,VALID,0,VALID,53.3727,VALID,0,VALID,23.3238,VALID,338,VALID,0,
2009-12-19, 02:42:05,VALID,1010.93,VALID,0,VALID,53.4108,VALID,0,VALID,23.3433,VALID,338,VALID,0,
2009-12-19, 02:43:05,VALID,1010.92,VALID,0,VALID,53.3727,VALID,0,VALID,23.3433,VALID,338,VALID,0,
2009-12-19, 02:44:05,VALID,1010.97,VALID,0,VALID,53.3421,VALID,0,VALID,23.3451,VALID,338,VALID,0,
2009-12-19, 02:45:05,VALID,1010.99,VALID,0,VALID,53.3803,VALID,0,VALID,23.3451,VALID,338,VALID,0,
2009-12-19, 02:46:05,VALID,1011.01,VALID,0,VALID,53.3498,VALID,0,VALID,23.3238,VALID,338,VALID,0,
2009-12-19, 02:47:05,VALID,1011.01,VALID,0,VALID,53.3803,VALID,0,VALID,23.3433,VALID,338,VALID,0,
2009-12-19, 02:48:05,VALID,1011.04,VALID,0,VALID,53.426,VALID,0,VALID,23.3043,VALID,338,VALID,0,
2009-12-19, 02:49:05,VALID,1011.07,VALID,0,VALID,53.426,VALID,0,VALID,23.3061,VALID,338,VALID,0,
2009-12-19, 02:50:05,VALID,1011.04,VALID,0,VALID,53.3879,VALID,0,VALID,23.2848,VALID,338,VALID,0,
2009-12-19, 02:51:05,VALID,1011.05,VALID,0,VALID,53.426,VALID,0,VALID,23.2866,VALID,349,VALID,0,
2009-12-19, 02:52:05,VALID,1011.04,VALID,0,VALID,53.4413,VALID,0,VALID,23.2671,VALID,3,VALID,0,
2009-12-19, 02:53:05,VALID,1011.05,VALID,0,VALID,53.4413,VALID,0,VALID,23.2459,VALID,3,VALID,0,
2009-12-19, 02:54:05,VALID,1011.06,VALID,0,VALID,53.4337,VALID,0,VALID,23.2476,VALID,3,VALID,0,
2009-12-19, 02:55:05,VALID,1011.09,VALID,0,VALID,53.4718,VALID,0,VALID,23.2264,VALID,3,VALID,0,
2009-12-19, 02:56:05,VALID,1011.14,VALID,0,VALID,53.487,VALID,0,VALID,23.2264,VALID,3,VALID,0,
2009-12-19, 02:57:05,VALID,1011.17,VALID,0,VALID,53.4337,VALID,0,VALID,23.2264,VALID,3,VALID,0,
2009-12-19, 02:58:05,VALID,1011.19,VALID,0,VALID,53.4718,VALID,0,VALID,23.2051,VALID,3,VALID,0,
2009-12-19, 02:59:05,VALID,1011.19,VALID,0,VALID,53.4565,VALID,0,VALID,23.2264,VALID,3,VALID,0,
2009-12-19, 03:00:05,VALID,1011.19,VALID,0,VALID,53.426,VALID,0,VALID,23.2264,VALID,3,VALID,0,
2009-12-19, 03:01:05,VALID,1011.25,VALID,0,VALID,53.4642,VALID,0,VALID,23.2476,VALID,3,VALID,0,
2009-12-19, 03:02:05,VALID,1011.25,VALID,0,VALID,53.4642,VALID,0,VALID,23.2069,VALID,3,VALID,0,
2009-12-19, 03:03:05,VALID,1011.28,VALID,0,VALID,53.4642,VALID,0,VALID,23.2069,VALID,3,VALID,0,
2009-12-19, 03:04:05,VALID,1011.3,VALID,0,VALID,53.5099,VALID,0,VALID,23.2087,VALID,3,VALID,0,
2009-12-19, 03:05:05,VALID,1011.31,VALID,0,VALID,53.5252,VALID,0,VALID,23.1679,VALID,3,VALID,0,
2009-12-19, 03:06:05,VALID,1011.36,VALID,0,VALID,53.5023,VALID,0,VALID,23.1679,VALID,3,VALID,0,
2009-12-19, 03:07:05,VALID,1011.37,VALID,0,VALID,53.5099,VALID,0,VALID,23.1485,VALID,3,VALID,0,
2009-12-19, 03:08:05,VALID,1011.39,VALID,0,VALID,53.5175,VALID,0,VALID,23.1485,VALID,3,VALID,0,
2009-12-19, 03:09:05,VALID,1011.41,VALID,0,VALID,53.5252,VALID,0,VALID,23.1502,VALID,3,VALID,0,
2009-12-19, 03:10:05,VALID,1011.44,VALID,0,VALID,53.5023,VALID,0,VALID,23.1485,VALID,3,VALID,0,
2009-12-19, 03:11:05,VALID,1011.48,VALID,0,VALID,53.5633,VALID,0,VALID,23.1697,VALID,3,VALID,0,
2009-12-19, 03:12:05,VALID,1011.48,VALID,0,VALID,53.5023,VALID,0,VALID,23.1485,VALID,3,VALID,0,
2009-12-19, 03:13:05,VALID,1011.47,VALID,0,VALID,53.5023,VALID,0,VALID,23.1892,VALID,3,VALID,0,
2009-12-19, 03:14:05,VALID,1011.49,VALID,0,VALID,53.487,VALID,0,VALID,23.1485,VALID,3,VALID,0,
2009-12-19, 03:15:05,VALID,1011.49,VALID,0,VALID,53.4947,VALID,0,VALID,23.1679,VALID,3,VALID,0,
2009-12-19, 03:16:05,VALID,1011.49,VALID,0,VALID,53.487,VALID,0,VALID,23.1892,VALID,3,VALID,0,
2009-12-19, 03:17:05,VALID,1011.47,VALID,0,VALID,53.4565,VALID,0,VALID,23.1874,VALID,3,VALID,0,
2009-12-19, 03:18:05,VALID,1011.49,VALID,0,VALID,53.4108,VALID,0,VALID,23.1874,VALID,3,VALID,0,
2009-12-19, 03:19:05,VALID,1011.49,VALID,0,VALID,53.4032,VALID,0,VALID,23.2069,VALID,3,VALID,0,
2009-12-19, 03:20:05,VALID,1011.49,VALID,0,VALID,53.4108,VALID,0,VALID,23.2069,VALID,3,VALID,0,
2009-12-19, 03:21:05,VALID,1011.48,VALID,0,VALID,53.4184,VALID,0,VALID,23.2069,VALID,3,VALID,0,
2009-12-19, 03:22:05,VALID,1011.5,VALID,0,VALID,53.3879,VALID,0,VALID,23.2264,VALID,3,VALID,0,
2009-12-19, 03:23:05,VALID,1011.5,VALID,0,VALID,53.3955,VALID,0,VALID,23.2459,VALID,3,VALID,0,
2009-12-19, 03:24:05,VALID,1011.51,VALID,0,VALID,53.4032,VALID,0,VALID,23.2459,VALID,3,VALID,0,
2009-12-19, 03:25:05,VALID,1011.53,VALID,0,VALID,53.3803,VALID,0,VALID,23.2476,VALID,3,VALID,0,
2009-12-19, 03:26:05,VALID,1011.54,VALID,0,VALID,53.4108,VALID,0,VALID,23.2459,VALID,3,VALID,0,
2009-12-19, 03:27:05,VALID,1011.57,VALID,0,VALID,53.3955,VALID,0,VALID,23.2246,VALID,3,VALID,0,
2009-12-19, 03:28:05,VALID,1011.58,VALID,0,VALID,53.3879,VALID,0.105969,VALID,23.2654,VALID,3,VALID,0,
2009-12-19, 03:29:05,VALID,1011.59,VALID,0,VALID,53.3574,VALID,0.105969,VALID,23.2831,VALID,3,VALID,0,
2009-12-19, 03:30:05,VALID,1011.63,VALID,0,VALID,53.3498,VALID,0,VALID,23.3026,VALID,3,VALID,0,
2009-12-19, 03:31:05,VALID,1011.66,VALID,0,VALID,53.3193,VALID,0.105969,VALID,23.322,VALID,3,VALID,0,
2009-12-19, 03:32:05,VALID,1011.65,VALID,0,VALID,53.2964,VALID,0,VALID,23.3433,VALID,3,VALID,0,
2009-12-19, 03:33:05,VALID,1011.65,VALID,0,VALID,53.304,VALID,0.105969,VALID,23.322,VALID,3,VALID,0,
2009-12-19, 03:34:05,VALID,1011.65,VALID,0,VALID,53.2506,VALID,0,VALID,23.361,VALID,3,VALID,0,
2009-12-19, 03:35:05,VALID,1011.67,VALID,0,VALID,53.2354,VALID,0,VALID,23.4017,VALID,15,VALID,0,
2009-12-19, 03:36:05,VALID,1011.64,VALID,0,VALID,53.1973,VALID,0,VALID,23.4212,VALID,58,VALID,0,
2009-12-19, 03:37:05,VALID,1011.66,VALID,0,VALID,53.1896,VALID,0.105969,VALID,23.4602,VALID,88,VALID,0,
2009-12-19, 03:38:05,VALID,1011.66,VALID,0,VALID,53.1668,VALID,0.105969,VALID,23.4389,VALID,86,VALID,0,
2009-12-19, 03:39:05,VALID,1011.68,VALID,0,VALID,53.1439,VALID,0,VALID,23.4584,VALID,92,VALID,0,
2009-12-19, 03:40:05,VALID,1011.68,VALID,0,VALID,53.121,VALID,0.105969,VALID,23.4992,VALID,95,VALID,0,
2009-12-19, 03:41:05,VALID,1011.67,VALID,0,VALID,53.1362,VALID,0,VALID,23.4779,VALID,95,VALID,0,
2009-12-19, 03:42:05,VALID,1011.68,VALID,0,VALID,53.1286,VALID,0.105969,VALID,23.4779,VALID,95,VALID,0,
2009-12-19, 03:43:05,VALID,1011.68,VALID,0,VALID,53.1134,VALID,0.105969,VALID,23.5169,VALID,95,VALID,0,
2009-12-19, 03:44:05,VALID,1011.65,VALID,0,VALID,53.0981,VALID,0.105969,VALID,23.5381,VALID,87,VALID,0,
2009-12-19, 03:45:05,VALID,1011.67,VALID,0,VALID,53.0981,VALID,0.105969,VALID,23.5576,VALID,87,VALID,0,
2009-12-19, 03:46:05,VALID,1011.67,VALID,0,VALID,53.0447,VALID,0.105969,VALID,23.5363,VALID,87,VALID,0,
2009-12-19, 03:47:05,VALID,1011.68,VALID,0,VALID,53.0524,VALID,0.105969,VALID,23.5169,VALID,87,VALID,0,
2009-12-19, 03:48:05,VALID,1011.69,VALID,0,VALID,53.0752,VALID,0,VALID,23.5576,VALID,84,VALID,0,
2009-12-19, 03:49:05,VALID,1011.69,VALID,0,VALID,53.1057,VALID,0,VALID,23.5381,VALID,67,VALID,0,
2009-12-19, 03:50:05,VALID,1011.73,VALID,0,VALID,53.1362,VALID,0.105969,VALID,23.4974,VALID,78,VALID,0,
2009-12-19, 03:51:05,VALID,1011.75,VALID,0,VALID,53.1134,VALID,0,VALID,23.4992,VALID,65,VALID,0.264844,
2009-12-19, 03:52:05,VALID,1011.73,VALID,0,VALID,53.1286,VALID,0,VALID,23.4974,VALID,64,VALID,0.503906,
2009-12-19, 03:53:05,VALID,1011.76,VALID,0,VALID,53.1439,VALID,0,VALID,23.4779,VALID,68,VALID,0.727734,
2009-12-19, 03:54:05,VALID,1011.75,VALID,0,VALID,53.1286,VALID,0.105969,VALID,23.4992,VALID,73,VALID,0.510547,
2009-12-19, 03:55:05,VALID,1011.79,VALID,0,VALID,53.1439,VALID,0.105969,VALID,23.4992,VALID,78,VALID,0.696484,
2009-12-19, 03:56:05,VALID,1011.81,VALID,0,VALID,53.1439,VALID,0,VALID,23.4992,VALID,67,VALID,0.458203,